TimeEST,TemperatureF,Dew PointF,Humidity,Sea Level PressureIn,VisibilityMPH,Wind Direction,Wind SpeedMPH,Gust SpeedMPH,PrecipitationIn,Events,Conditions,WindDirDegrees,DateUTC
12:56 AM,52.0,39.0,61,30.14,10.0,SE,5.8,-,N/A,,Mostly Cloudy,140,2012-11-10 05:56:00
1:56 AM,51.1,39.0,63,30.14,10.0,SSE,8.1,-,N/A,,Mostly Cloudy,150,2012-11-10 06:56:00
2:56 AM,55.9,37.9,51,30.15,10.0,South,6.9,-,N/A,,Mostly Cloudy,190,2012-11-10 07:56:00
3:56 AM,55.0,37.9,53,30.17,10.0,SSW,6.9,-,N/A,,Scattered Clouds,200,2012-11-10 08:56:00
4:56 AM,55.9,37.9,51,30.18,10.0,SSW,8.1,-,N/A,,Scattered Clouds,200,2012-11-10 09:56:00
5:56 AM,54.0,37.9,55,30.20,10.0,South,6.9,-,N/A,,Scattered Clouds,190,2012-11-10 10:56:00
6:56 AM,52.0,37.9,59,30.22,10.0,South,5.8,-,N/A,,Scattered Clouds,170,2012-11-10 11:56:00
7:56 AM,50.0,39.0,66,30.21,10.0,SE,8.1,-,N/A,,Clear,130,2012-11-10 12:56:00
8:56 AM,57.0,39.9,53,30.22,10.0,South,10.4,-,N/A,,Clear,170,2012-11-10 13:56:00
9:56 AM,62.1,43.0,50,30.21,10.0,South,11.5,-,N/A,,Clear,190,2012-11-10 14:56:00
10:56 AM,64.9,45.0,48,30.22,10.0,SSW,10.4,-,N/A,,Clear,210,2012-11-10 15:56:00
11:56 AM,69.1,46.9,45,30.19,10.0,South,12.7,-,N/A,,Clear,190,2012-11-10 16:56:00
12:56 PM,72.0,46.9,41,30.16,10.0,South,10.4,-,N/A,,Clear,170,2012-11-10 17:56:00
1:56 PM,73.9,44.1,34,30.13,10.0,South,15.0,24.2,N/A,,Clear,190,2012-11-10 18:56:00
2:56 PM,73.9,44.1,34,30.11,10.0,South,13.8,19.6,N/A,,Clear,190,2012-11-10 19:56:00
3:56 PM,73.9,41.0,30,30.11,10.0,South,13.8,23.0,N/A,,Clear,190,2012-11-10 20:56:00
4:56 PM,71.1,43.0,36,30.12,10.0,South,11.5,-,N/A,,Clear,170,2012-11-10 21:56:00
5:56 PM,68.0,43.0,40,30.14,10.0,South,10.4,-,N/A,,Clear,170,2012-11-10 22:56:00
6:56 PM,64.0,42.1,45,30.16,10.0,SSE,8.1,-,N/A,,Clear,160,2012-11-10 23:56:00
7:56 PM,64.9,43.0,45,30.17,10.0,South,9.2,-,N/A,,Clear,170,2012-11-11 00:56:00
8:56 PM,57.9,43.0,58,30.17,10.0,SE,8.1,-,N/A,,Scattered Clouds,140,2012-11-11 01:56:00
9:56 PM,57.0,43.0,59,30.17,10.0,SSE,6.9,-,N/A,,Partly Cloudy,150,2012-11-11 02:56:00
10:56 PM,54.0,42.1,64,30.17,10.0,SE,8.1,-,N/A,,Partly Cloudy,140,2012-11-11 03:56:00
11:56 PM,61.0,41.0,48,30.17,10.0,South,9.2,-,N/A,,Partly Cloudy,180,2012-11-11 04:56:00